Location: Gro�sch�nbrunn
(49.5760°N, 11.8868°E)
Time: 16:38:52
(UTC+00:00)

ISS - Visible Passes

Search period start: 25 November 2020 00:00
Search period end: 05 December 2020 00:00
Orbit: 418 x 421 km, 51.6° (Epoch: 25 November)

Date Brightness Start Highest point End Pass type
(mag) Time Alt. Az. Time Alt. Az. Time Alt. Az.
25 Nov -3.2 16:22:23 10° SW 16:25:37 46° SSE 16:27:59 17° E visible
25 Nov -1.9 17:59:03 10° W 18:00:57 30° W 18:00:57 30° W visible
26 Nov -3.8 17:11:30 10° W 17:14:53 76° NNW 17:15:21 61° NE visible
27 Nov -3.8 16:24:00 10° WSW 16:27:22 86° SSE 16:29:44 18° ENE visible
27 Nov -1.6 18:00:59 10° W 18:02:41 26° WNW 18:02:41 26° WNW visible
28 Nov -3.6 17:13:26 10° W 17:16:46 59° N 17:17:03 56° NNE visible
29 Nov -3.6 16:25:51 10° W 16:29:12 65° N 16:31:25 20° ENE visible
29 Nov -1.5 18:02:52 10° WNW 18:04:22 24° WNW 18:04:22 24° WNW visible
30 Nov -3.7 17:15:18 10° WNW 17:18:39 61° N 17:18:44 60° NNE visible
01 Dec -3.6 16:27:43 10° W 16:31:03 58° N 16:33:08 21° ENE visible
01 Dec -1.4 18:04:37 10° WNW 18:06:06 24° WNW 18:06:06 24° WNW visible
02 Dec -3.9 17:17:03 10° WNW 17:20:26 81° NNE 17:20:32 80° NE visible
03 Dec -3.8 16:29:29 10° WNW 16:32:51 68° N 16:35:02 20° E visible
03 Dec -1.4 18:06:23 10° WNW 18:08:00 24° W 18:08:00 24° W visible
04 Dec -3.4 17:18:45 10° WNW 17:22:05 59° SSW 17:22:35 51° SSE visible
